Regional Weather Roundup
Issued by NWS New Orleans/Baton Rouge, LA

Home | Current Version | Previous Version | Text Only | Print | Product List | Glossary On
Versions: 1 2 3 4 5 6 7 8 9 10 11 12 13 14 15 16 17 18 19 20 21 22 23 24 25 26 27 28 29 30 31 32 33 34 35 36 37 38 39 40 41 42 43 44 45 46 47 48 49 50
000
ASUS44 KLIX 260706
RWRLIX
NEW ORLEANS REGIONAL WEATHER ROUNDUP
NATIONAL WEATHER SERVICE NEW ORLEANS LA
200 AM CDT THU APR 26 2018

NOTE: "FAIR" INDICATES FEW OR NO CLOUDS BELOW 12,000 FEET WITH NO
      SIGNIFICANT WEATHER AND/OR OBSTRUCTIONS TO VISIBILITY.
      SKY/WX - SKY CONDITION AND SIGNIFICANT WEATHER.
      TMP - AIR TEMPERATURE.     DP    - DEWPOINT TEMPERATURE.
      RH  - RELATIVE HUMIDITY.   PRES  - PRESSURE.
      HI  - HEAT INDEX.          WCI   - WIND CHILL INDEX.

*  THESE STATIONS ARE NOT NWS OR FAA STATIONS AND ARE NOT UNDER
   NWS QUALITY CONTROL.

LAZ038-040-048-061>063-065>067-069-260800-
SOUTHEAST LOUISIANA

CITY           SKY/WX    TMP DP  RH WIND       PRES   REMARKS
N.O. INTL ARPT FAIR      67  65  93 SW7       29.90F
N.O. LAKEFRONT FAIR      70  64  81 SW13      29.90S
N.O. DOWNTOWN* FAIR      69  64  84 VRB6      29.91F
RESERVE*       FAIR      68  62  81 W6        29.90F
SLIDELL        FAIR      67  62  84 SW3       29.88F
BATON ROUGE    CLOUDY    68  62  81 SW12      29.88F
BOOTHVILLE     FAIR      73  65  75 W10       29.90F
BELLE CHASSE   FAIR      65  64  97 W3        29.89F
BOGALUSA*      FAIR      64  59  82 W3        29.88F
GALLIANO*      FAIR      69  63  81 SW6       29.90F
NEW ROADS*     CLOUDY    69  62  79 SW10      29.89F
GONZALES*      CLOUDY    68  63  83 SW5       29.89F
HAMMOND*       MOCLDY    66  61  82 W7        29.88F
HOUMA*         FAIR      66  64  93 W6        29.91S
PORT FOURCHON* SUNNY     72  64  78 SW9G15    29.91F

$$

MSZ070-080>082-260800-
SOUTHERN MISSISSIPPI

CITY           SKY/WX    TMP DP  RH WIND       PRES   REMARKS
MCCOMB         CLOUDY    67  58  72 SW8       29.86F
GULFPORT       FAIR      61  58  90 W5        29.87F
BILOXI         FAIR      68  63  83 SW6       29.87F
PASCAGOULA     FAIR      58  55  90 CALM      29.87F FOG

$$

COASTAL OBSERVATIONS
LAKE AND NEARSHORE STATIONS

STATION/POSITION TIME  SKY/WX   TEMP    WIND        PRES    WAVE
                                AIR SEA DIR/SP/G            HT/PER
                 (UTC)          (F)     (DEG/KT/KT) (MB)    (FT/S)
WAVELAND YACHT   0642            68 73  270/  4/  5 1012.0
GRAND ISLE       0648            71 73  250/  6/ 11 1012.3
SOUTHWEST PASS   0648            69 59  260/ 14/ 15 1013.4
NEW CANAL        0648            68 75  240/  6/ 11 1012.2
SHELL BEACH      0642            69 77  240/  9/ 11 1012.1

OFFSHORE STATIONS

STATION/POSITION TIME  SKY/WX   TEMP    WIND        PRES    WAVE
                                AIR SEA DIR/SP/G            HT/PER
                 (UTC)          (F)     (DEG/KT/KT) (MB)    (FT/S)
64 S DAUPHIN ISL 0650               73  240/ 12/ 16 1012.8    1/ 2

$$




USA.gov is the U.S. government's official web portal to all federal, state and local government web resources and services.